Location: East Arcadia
(34.1056°N, 118.0176°W)
Time: 07:42:29
(UTC+00:00)

DELTA 2 R/B (1) - Pass Details

Date: 12 December 2023
Orbit: 788 x 802 km, 39.6° (Epoch: 24 February)

Event Time Altitude Azimuth Distance (km) Brightness Sun altitude
Rises 03:55:27 0° 284° (WNW) 3,294 7.6 -39.0°
Reaches altitude 10° 03:58:02 10° 290° (WNW) 2,362 6.6 -39.5°
Enters shadow 03:59:31 18° 296° (WNW) 1,850 5.9 -39.8°
